| time (UTC) | temp F | wind direction | speed MPH | gust MPH | rain 1hr in | rain 24hr in | rain mn in | humidity % | barometer mb |
| 20260510191534 | 74 | 228 | 1.0 | 2.0 | 0.00 | 0.00 | 0.00 | 66 | 996.9 |
| 20260510190926 | 73 | 238 | 1.0 | 2.0 | 0.00 | 0.00 | 0.00 | 66 | 996.6 |
| 20260510190319 | 73 | 255 | 2.0 | 3.0 | 0.00 | 0.00 | 0.00 | 68 | 996.6 |
| 20260510185121 | 73 | 235 | 1.0 | 3.0 | 0.00 | 0.00 | 0.00 | 67 | 996.6 |
| 20260510184544 | 73 | 262 | 3.0 | 4.0 | 0.00 | 0.00 | 0.00 | 66 | 996.6 |
| 20260510183943 | 73 | 234 | 0.0 | 3.0 | 0.00 | 0.00 | 0.00 | 66 | 996.6 |
| 20260510183349 | 71 | 243 | 2.0 | 2.0 | 0.00 | 0.00 | 0.00 | 67 | 996.9 |
| 20260510182738 | 71 | 241 | 3.0 | 4.0 | 0.00 | 0.00 | 0.00 | 66 | 996.9 |
| 20260510182115 | 71 | 249 | 2.0 | 2.0 | 0.00 | 0.00 | 0.00 | 68 | 996.6 |
| 20260510181544 | 72 | 256 | 1.0 | 4.0 | 0.00 | 0.00 | 0.00 | 66 | 996.6 |
| 20260510180934 | 73 | 253 | 2.0 | 3.0 | 0.00 | 0.00 | 0.00 | 65 | 996.6 |
| 20260510180317 | 73 | 247 | 3.0 | 3.0 | 0.00 | 0.00 | 0.00 | 63 | 996.6 |
| 20260510175741 | 74 | 243 | 1.0 | 1.0 | 0.00 | 0.00 | 0.00 | 63 | 996.6 |
| 20260510175152 | 74 | 238 | 1.0 | 2.0 | 0.00 | 0.00 | 0.00 | 65 | 996.6 |
| 20260510173950 | 75 | 243 | 1.0 | 1.0 | 0.00 | 0.00 | 0.00 | 61 | 996.2 |
| 20260510173326 | 74 | 229 | 1.0 | 3.0 | 0.00 | 0.00 | 0.00 | 64 | 996.2 |
| 20260510172724 | 74 | 229 | 1.0 | 3.0 | 0.00 | 0.00 | 0.00 | 66 | 996.2 |
| 20260510172111 | 73 | 240 | 1.0 | 2.0 | 0.00 | 0.00 | 0.00 | 66 | 996.2 |
| 20260510170336 | 71 | 244 | 2.0 | 2.0 | 0.00 | 0.00 | 0.00 | 69 | 996.6 |
| 20260510165751 | 70 | 224 | 1.0 | 2.0 | 0.00 | 0.00 | 0.00 | 67 | 996.6 |
| 20260510164545 | 68 | 237 | 1.0 | 2.0 | 0.00 | 0.00 | 0.00 | 71 | 996.6 |
| 20260510163944 | 69 | 237 | 1.0 | 1.0 | 0.00 | 0.00 | 0.00 | 72 | 996.6 |
| 20260510162725 | 70 | 234 | 0.0 | 2.0 | 0.00 | 0.00 | 0.00 | 69 | 996.9 |
| 20260510161529 | 71 | 240 | 3.0 | 4.0 | 0.00 | 0.00 | 0.00 | 69 | 996.6 |
| 20260510160950 | 71 | 227 | 1.0 | 2.0 | 0.00 | 0.00 | 0.00 | 68 | 996.6 |
| 20260510155736 | 69 | 222 | 0.0 | 2.0 | 0.00 | 0.00 | 0.00 | 71 | 996.6 |
| 20260510155150 | 68 | 238 | 1.0 | 2.0 | 0.00 | 0.00 | 0.00 | 72 | 996.2 |
| 20260510154523 | 68 | 235 | 1.0 | 1.0 | 0.00 | 0.00 | 0.00 | 72 | 996.2 |
| 20260510153949 | 68 | 240 | 0.0 | 1.0 | 0.00 | 0.00 | 0.00 | 76 | 996.2 |
| 20260510153322 | 68 | 252 | 2.0 | 3.0 | 0.00 | 0.00 | 0.00 | 73 | 996.6 |
| 20260510152734 | 68 | 251 | 2.0 | 2.0 | 0.00 | 0.00 | 0.00 | 72 | 996.6 |
| 20260510152149 | 68 | 224 | 1.0 | 2.0 | 0.00 | 0.00 | 0.00 | 72 | 996.2 |
| 20260510151535 | 69 | 240 | 4.0 | 6.0 | 0.00 | 0.00 | 0.00 | 70 | 996.6 |
| 20260510150914 | 70 | 243 | 1.0 | 3.0 | 0.00 | 0.00 | 0.00 | 68 | 996.2 |
| 20260510150339 | 70 | 228 | 1.0 | 1.0 | 0.00 | 0.00 | 0.00 | 71 | 996.2 |
| 20260510145717 | 70 | 164 | 3.0 | 4.0 | 0.00 | 0.00 | 0.00 | 66 | 995.5 |
| 20260510145138 | 70 | 172 | 2.0 | 4.0 | 0.00 | 0.00 | 0.00 | 65 | 995.5 |
| 20260510144510 | 70 | 147 | 3.0 | 3.0 | 0.00 | 0.00 | 0.00 | 67 | 995.9 |
| 20260510143927 | 69 | 233 | 0.0 | 1.0 | 0.00 | 0.00 | 0.00 | 72 | 996.2 |
| 20260510143335 | 69 | 243 | 1.0 | 1.0 | 0.00 | 0.00 | 0.00 | 68 | 996.2 |
| 20260510142713 | 68 | 233 | 0.0 | 1.0 | 0.00 | 0.00 | 0.00 | 71 | 996.2 |
| 20260510142128 | 68 | 212 | 1.0 | 1.0 | 0.00 | 0.00 | 0.00 | 71 | 996.2 |
| 20260510140929 | 69 | 233 | 0.0 | 2.0 | 0.00 | 0.00 | 0.00 | 68 | 995.9 |
| 20260510135715 | 68 | 180 | 2.0 | 2.0 | 0.00 | 0.00 | 0.00 | 71 | 996.2 |
| 20260510135116 | 68 | 221 | 1.0 | 4.0 | 0.00 | 0.00 | 0.00 | 70 | 995.9 |
| 20260510134511 | 67 | 206 | 2.0 | 8.0 | 0.00 | 0.00 | 0.00 | 71 | 996.2 |
| 20260510133348 | 66 | 200 | 2.0 | 2.0 | 0.00 | 0.00 | 0.00 | 75 | 996.2 |
| 20260510132749 | 66 | 220 | 1.0 | 3.0 | 0.00 | 0.00 | 0.00 | 74 | 996.2 |
| 20260510131517 | 66 | 230 | 1.0 | 2.0 | 0.00 | 0.00 | 0.00 | 79 | 996.2 |
| 20260510130920 | 66 | 196 | 4.0 | 4.0 | 0.00 | 0.00 | 0.00 | 75 | 995.9 |
| 20260510130331 | 65 | 145 | 3.0 | 7.0 | 0.00 | 0.00 | 0.00 | 76 | 995.9 |
| 20260510125751 | 64 | 190 | 2.0 | 4.0 | 0.00 | 0.00 | 0.00 | 79 | 996.2 |
| 20260510125144 | 62 | 225 | 1.0 | 3.0 | 0.00 | 0.00 | 0.00 | 84 | 995.9 |
| 20260510123308 | 60 | 236 | 0.0 | 1.0 | 0.00 | 0.00 | 0.00 | 90 | 995.9 |
| 20260510122730 | 60 | 230 | 0.0 | 1.0 | 0.00 | 0.00 | 0.00 | 91 | 995.9 |
| 20260510122134 | 59 | 232 | 0.0 | 1.0 | 0.00 | 0.00 | 0.00 | 91 | 995.9 |
| 20260510121511 | 58 | 217 | 0.0 | 2.0 | 0.00 | 0.00 | 0.00 | 93 | 995.5 |
| 20260510120949 | 58 | 284 | 1.0 | 2.0 | 0.00 | 0.00 | 0.00 | 94 | 995.9 |
| 20260510115743 | 56 | 238 | 1.0 | 1.0 | 0.00 | 0.00 | 0.00 | 98 | 995.5 |
| 20260510114518 | 53 | 222 | 0.0 | 1.0 | 0.00 | 0.00 | 0.00 | 99 | 995.5 |
| 20260510113914 | 53 | 222 | 1.0 | 1.0 | 0.00 | 0.00 | 0.00 | 99 | 995.5 |
| 20260510112710 | 52 | 222 | 0.0 | 2.0 | 0.00 | 0.00 | 0.00 | 99 | 995.2 |
| 20260510112131 | 52 | 218 | 1.0 | 1.0 | 0.00 | 0.00 | 0.00 | 99 | 995.2 |
| 20260510111532 | 52 | 220 | 1.0 | 1.0 | 0.00 | 0.00 | 0.00 | 99 | 994.9 |
| 20260510110933 | 52 | 215 | 1.0 | 1.0 | 0.00 | 0.00 | 0.00 | 99 | 994.9 |
| 20260510110312 | 51 | 224 | 0.0 | 1.0 | 0.00 | 0.00 | 0.00 | 99 | 994.9 |
| 20260510105747 | 51 | 212 | 1.0 | 2.0 | 0.00 | 0.00 | 0.00 | 99 | 994.9 |
| 20260510105143 | 51 | 219 | 0.0 | 2.0 | 0.00 | 0.00 | 0.00 | 99 | 994.5 |
| 20260510103935 | 51 | 216 | 1.0 | 2.0 | 0.00 | 0.00 | 0.00 | 99 | 994.5 |
| 20260510103324 | 51 | 213 | 1.0 | 1.0 | 0.00 | 0.00 | 0.00 | 99 | 994.5 |
| 20260510102717 | 51 | 218 | 1.0 | 2.0 | 0.00 | 0.00 | 0.00 | 99 | 994.2 |
| 20260510102142 | 51 | 220 | 1.0 | 1.0 | 0.00 | 0.00 | 0.00 | 99 | 994.2 |
| 20260510101511 | 51 | 219 | 1.0 | 2.0 | 0.00 | 0.00 | 0.00 | 99 | 994.5 |
| 20260510100351 | 51 | 223 | 1.0 | 2.0 | 0.00 | 0.00 | 0.00 | 99 | 994.2 |
| 20260510095710 | 51 | 218 | 1.0 | 2.0 | 0.00 | 0.00 | 0.00 | 99 | 994.2 |
| 20260510095139 | 51 | 221 | 1.0 | 1.0 | 0.00 | 0.00 | 0.00 | 99 | 994.2 |
| 20260510094539 | 51 | 221 | 0.0 | 1.0 | 0.00 | 0.00 | 0.00 | 99 | 993.9 |
| 20260510093908 | 51 | 208 | 2.0 | 2.0 | 0.00 | 0.00 | 0.00 | 99 | 993.9 |
| 20260510093327 | 51 | 219 | 1.0 | 2.0 | 0.00 | 0.00 | 0.00 | 99 | 993.9 |
| 20260510092725 | 51 | 204 | 1.0 | 1.0 | 0.00 | 0.00 | 0.00 | 99 | 993.9 |
| 20260510092129 | 51 | 229 | 0.0 | 1.0 | 0.00 | 0.00 | 0.00 | 99 | 993.9 |
| 20260510091537 | 51 | 207 | 1.0 | 2.0 | 0.00 | 0.00 | 0.00 | 99 | 993.9 |
| 20260510090909 | 51 | 216 | 1.0 | 1.0 | 0.00 | 0.00 | 0.00 | 99 | 993.9 |
| 20260510090341 | 51 | 214 | 1.0 | 1.0 | 0.00 | 0.00 | 0.00 | 99 | 993.9 |
| 20260510085716 | 51 | 218 | 1.0 | 1.0 | 0.00 | 0.00 | 0.00 | 99 | 993.9 |
| 20260510083948 | 51 | 220 | 1.0 | 1.0 | 0.00 | 0.00 | 0.00 | 99 | 993.5 |
| 20260510083352 | 51 | 225 | 1.0 | 1.0 | 0.00 | 0.00 | 0.00 | 99 | 993.2 |
| 20260510082744 | 51 | 226 | 0.0 | 1.0 | 0.00 | 0.00 | 0.00 | 99 | 993.5 |
| 20260510082119 | 52 | 223 | 1.0 | 1.0 | 0.00 | 0.00 | 0.00 | 99 | 993.5 |
| 20260510081549 | 52 | 225 | 0.0 | 0.0 | 0.00 | 0.00 | 0.00 | 99 | 993.2 |
| 20260510080918 | 52 | 226 | 0.0 | 1.0 | 0.00 | 0.00 | 0.00 | 99 | 993.2 |
| 20260510080327 | 52 | 229 | 0.0 | 1.0 | 0.00 | 0.00 | 0.00 | 99 | 993.2 |
| 20260510075750 | 52 | 229 | 0.0 | 0.0 | 0.00 | 0.00 | 0.00 | 99 | 993.2 |
| 20260510074542 | 53 | 227 | 0.0 | 1.0 | 0.00 | 0.00 | 0.00 | 99 | 992.8 |
| 20260510073942 | 53 | 213 | 1.0 | 2.0 | 0.00 | 0.00 | 0.00 | 99 | 993.2 |
| 20260510073347 | 53 | 202 | 2.0 | 2.0 | 0.00 | 0.00 | 0.00 | 99 | 992.8 |
| 20260510072734 | 53 | 208 | 1.0 | 2.0 | 0.00 | 0.00 | 0.00 | 99 | 992.8 |
| 20260510072126 | 53 | 225 | 1.0 | 2.0 | 0.00 | 0.00 | 0.00 | 98 | 992.8 |
| 20260510071546 | 53 | 209 | 2.0 | 2.0 | 0.00 | 0.00 | 0.00 | 99 | 993.2 |
| 20260510070925 | 53 | 227 | 1.0 | 2.0 | 0.00 | 0.00 | 0.00 | 98 | 993.2 |
| 20260510070312 | 53 | 222 | 1.0 | 2.0 | 0.00 | 0.00 | 0.00 | 98 | 992.8 |
| 20260510065734 | 54 | 208 | 2.0 | 2.0 | 0.00 | 0.00 | 0.00 | 98 | 992.8 |
| 20260510065141 | 54 | 209 | 2.0 | 3.0 | 0.00 | 0.00 | 0.00 | 98 | 992.8 |
| 20260510063923 | 54 | 193 | 2.0 | 3.0 | 0.00 | 0.00 | 0.00 | 98 | 993.2 |
| 20260510063330 | 54 | 187 | 2.0 | 3.0 | 0.00 | 0.00 | 0.00 | 98 | 993.2 |
| 20260510062709 | 54 | 206 | 2.0 | 2.0 | 0.00 | 0.00 | 0.00 | 97 | 993.2 |
| 20260510062146 | 54 | 206 | 2.0 | 3.0 | 0.00 | 0.00 | 0.00 | 97 | 993.2 |
| 20260510061534 | 54 | 204 | 2.0 | 2.0 | 0.00 | 0.00 | 0.00 | 97 | 993.2 |
| 20260510060949 | 54 | 187 | 2.0 | 2.0 | 0.00 | 0.00 | 0.00 | 97 | 993.2 |
| 20260510060341 | 54 | 203 | 2.0 | 3.0 | 0.00 | 0.00 | 0.00 | 97 | 993.2 |
| 20260510055725 | 54 | 221 | 2.0 | 2.0 | 0.00 | 0.00 | 0.00 | 96 | 993.2 |
| 20260510055118 | 55 | 209 | 2.0 | 2.0 | 0.00 | 0.00 | 0.00 | 96 | 993.2 |
| 20260510054538 | 55 | 188 | 2.0 | 3.0 | 0.00 | 0.00 | 0.00 | 96 | 992.8 |
| 20260510053314 | 55 | 195 | 1.0 | 2.0 | 0.00 | 0.00 | 0.00 | 96 | 992.8 |
| 20260510052149 | 55 | 214 | 2.0 | 2.0 | 0.00 | 0.00 | 0.00 | 96 | 993.2 |
| 20260510051548 | 55 | 204 | 2.0 | 2.0 | 0.00 | 0.00 | 0.00 | 96 | 993.2 |
| 20260510050912 | 55 | 220 | 1.0 | 1.0 | 0.00 | 0.00 | 0.00 | 95 | 993.2 |
| 20260510050332 | 55 | 213 | 1.0 | 2.0 | 0.00 | 0.00 | 0.00 | 95 | 993.5 |
| 20260510045721 | 56 | 143 | 1.0 | 2.0 | 0.00 | 0.00 | 0.00 | 95 | 993.5 |
| 20260510045110 | 56 | 206 | 2.0 | 2.0 | 0.00 | 0.00 | 0.00 | 94 | 993.2 |
| 20260510043931 | 56 | 195 | 2.0 | 2.0 | 0.00 | 0.00 | 0.00 | 94 | 993.2 |
| 20260510043338 | 56 | 216 | 1.0 | 2.0 | 0.00 | 0.00 | 0.00 | 94 | 993.5 |
| 20260510042711 | 56 | 190 | 2.0 | 2.0 | 0.00 | 0.00 | 0.00 | 94 | 993.5 |
| 20260510042145 | 56 | 193 | 1.0 | 2.0 | 0.00 | 0.00 | 0.00 | 93 | 993.5 |
| 20260510041533 | 57 | 210 | 1.0 | 3.0 | 0.00 | 0.00 | 0.00 | 93 | 993.5 |
| 20260510040924 | 57 | 171 | 2.0 | 3.0 | 0.00 | 0.00 | 0.00 | 93 | 993.5 |
| 20260510040343 | 57 | 190 | 2.0 | 3.0 | 0.00 | 0.00 | 0.00 | 93 | 993.5 |
| 20260510035747 | 57 | 198 | 2.0 | 3.0 | 0.00 | 0.00 | 0.00 | 92 | 993.5 |
| 20260510035123 | 57 | 204 | 2.0 | 3.0 | 0.00 | 0.00 | 0.00 | 92 | 993.2 |
| 20260510034541 | 57 | 192 | 3.0 | 3.0 | 0.00 | 0.00 | 0.00 | 92 | 993.5 |
| 20260510033910 | 58 | 203 | 2.0 | 3.0 | 0.00 | 0.00 | 0.00 | 91 | 993.5 |
| 20260510033316 | 58 | 201 | 3.0 | 3.0 | 0.00 | 0.00 | 0.00 | 91 | 993.2 |
| 20260510032752 | 58 | 198 | 3.0 | 3.0 | 0.00 | 0.00 | 0.00 | 91 | 993.5 |
| 20260510032147 | 58 | 192 | 2.0 | 3.0 | 0.00 | 0.00 | 0.00 | 90 | 993.2 |
| 20260510031524 | 58 | 166 | 2.0 | 3.0 | 0.00 | 0.00 | 0.00 | 89 | 993.2 |
| 20260510030919 | 58 | 197 | 2.0 | 3.0 | 0.00 | 0.00 | 0.00 | 89 | 993.2 |
| 20260510030328 | 58 | 183 | 2.0 | 3.0 | 0.00 | 0.00 | 0.00 | 88 | 993.2 |
| 20260510025732 | 59 | 215 | 2.0 | 2.0 | 0.00 | 0.00 | 0.00 | 88 | 993.2 |
| 20260510025123 | 59 | 191 | 2.0 | 3.0 | 0.00 | 0.00 | 0.00 | 87 | 992.8 |
| 20260510023940 | 60 | 192 | 2.0 | 3.0 | 0.00 | 0.00 | 0.00 | 86 | 992.8 |
| 20260510022739 | 60 | 186 | 2.0 | 3.0 | 0.00 | 0.00 | 0.00 | 85 | 992.5 |
| 20260510021510 | 61 | 219 | 1.0 | 2.0 | 0.00 | 0.00 | 0.00 | 83 | 992.5 |
| 20260510020952 | 61 | 210 | 1.0 | 2.0 | 0.00 | 0.00 | 0.00 | 83 | 992.5 |
| 20260510015740 | 62 | 210 | 1.0 | 2.0 | 0.00 | 0.00 | 0.00 | 81 | 992.2 |
| 20260510015143 | 62 | 218 | 1.0 | 1.0 | 0.00 | 0.00 | 0.00 | 81 | 992.2 |
| 20260510014511 | 62 | 204 | 2.0 | 2.0 | 0.00 | 0.00 | 0.00 | 80 | 992.2 |
| 20260510013946 | 63 | 217 | 1.0 | 1.0 | 0.00 | 0.00 | 0.00 | 79 | 992.2 |
| 20260510012725 | 63 | 215 | 1.0 | 2.0 | 0.00 | 0.00 | 0.00 | 78 | 991.8 |
| 20260510012131 | 63 | 204 | 1.0 | 2.0 | 0.00 | 0.00 | 0.00 | 77 | 991.8 |
| 20260510011556 | 63 | 225 | 0.0 | 1.0 | 0.00 | 0.00 | 0.00 | 77 | 991.8 |
| 20260510010951 | 64 | 223 | 1.0 | 2.0 | 0.00 | 0.00 | 0.00 | 77 | 991.5 |
| 20260510010348 | 64 | 213 | 1.0 | 2.0 | 0.00 | 0.00 | 0.00 | 75 | 991.5 |
| 20260510005143 | 65 | 211 | 1.0 | 2.0 | 0.00 | 0.00 | 0.00 | 74 | 991.5 |
| 20260510004550 | 65 | 216 | 1.0 | 2.0 | 0.00 | 0.00 | 0.00 | 73 | 991.1 |
| 20260510003307 | 66 | 230 | 0.0 | 1.0 | 0.00 | 0.00 | 0.00 | 72 | 991.1 |
| 20260510002716 | 67 | 223 | 1.0 | 2.0 | 0.00 | 0.00 | 0.00 | 70 | 991.1 |
| 20260510001511 | 68 | 217 | 1.0 | 2.0 | 0.00 | 0.00 | 0.00 | 69 | 990.8 |
| 20260510000943 | 68 | 199 | 3.0 | 4.0 | 0.00 | 0.00 | 0.00 | 68 | 991.1 |
| 20260510000349 | 68 | 206 | 1.0 | 2.0 | 0.00 | 0.00 | 0.00 | 68 | 990.8 |
| 20260509235710 | 68 | 191 | 1.0 | 3.0 | 0.00 | 0.00 | 0.00 | 67 | 990.8 |
| 20260509235126 | 69 | 218 | 1.0 | 2.0 | 0.00 | 0.00 | 0.00 | 68 | 990.8 |
| 20260509234543 | 69 | 223 | 1.0 | 2.0 | 0.00 | 0.00 | 0.00 | 67 | 990.5 |
| 20260509233949 | 69 | 212 | 2.0 | 4.0 | 0.00 | 0.00 | 0.00 | 65 | 990.8 |
| 20260509233339 | 70 | 216 | 2.0 | 6.0 | 0.00 | 0.00 | 0.00 | 64 | 990.5 |
| 20260509232130 | 70 | 201 | 2.0 | 2.0 | 0.00 | 0.00 | 0.00 | 64 | 990.8 |
| 20260509231509 | 70 | 219 | 2.0 | 3.0 | 0.00 | 0.00 | 0.00 | 63 | 990.8 |
| 20260509230951 | 70 | 152 | 4.0 | 4.0 | 0.00 | 0.00 | 0.00 | 63 | 990.5 |
| 20260509230332 | 70 | 210 | 2.0 | 3.0 | 0.00 | 0.00 | 0.00 | 64 | 990.8 |
| 20260509225146 | 70 | 170 | 2.0 | 3.0 | 0.00 | 0.00 | 0.00 | 64 | 990.8 |
| 20260509224535 | 70 | 214 | 3.0 | 7.0 | 0.00 | 0.00 | 0.00 | 63 | 990.8 |
| 20260509223928 | 70 | 185 | 3.0 | 4.0 | 0.00 | 0.00 | 0.00 | 63 | 990.5 |
| 20260509223343 | 71 | 208 | 3.0 | 8.0 | 0.00 | 0.00 | 0.00 | 62 | 990.5 |
| 20260509222130 | 71 | 228 | 2.0 | 4.0 | 0.00 | 0.00 | 0.00 | 65 | 990.5 |
| 20260509220917 | 71 | 204 | 2.0 | 6.0 | 0.00 | 0.00 | 0.00 | 63 | 990.8 |
| 20260509220325 | 71 | 181 | 3.0 | 4.0 | 0.00 | 0.00 | 0.00 | 61 | 990.8 |
| 20260509215723 | 71 | 217 | 4.0 | 8.0 | 0.00 | 0.00 | 0.00 | 61 | 990.8 |
| 20260509215134 | 71 | 212 | 1.0 | 3.0 | 0.00 | 0.00 | 0.00 | 63 | 990.8 |
| 20260509214520 | 71 | 188 | 3.0 | 10.0 | 0.00 | 0.00 | 0.00 | 61 | 990.8 |
| 20260509213334 | 71 | 242 | 1.0 | 2.0 | 0.00 | 0.00 | 0.00 | 65 | 990.8 |
| 20260509212738 | 70 | 202 | 1.0 | 4.0 | 0.00 | 0.00 | 0.00 | 63 | 991.1 |
| 20260509212145 | 71 | 207 | 2.0 | 7.0 | 0.00 | 0.00 | 0.00 | 60 | 991.1 |
| 20260509211542 | 71 | 228 | 1.0 | 3.0 | 0.00 | 0.00 | 0.00 | 60 | 991.1 |
| 20260509210931 | 72 | 185 | 3.0 | 11.0 | 0.00 | 0.00 | 0.00 | 59 | 991.1 |
| 20260509210318 | 71 | 159 | 5.0 | 9.0 | 0.00 | 0.00 | 0.00 | 61 | 990.8 |
| 20260509205747 | 71 | 113 | 4.0 | 8.0 | 0.00 | 0.00 | 0.00 | 62 | 991.1 |
| 20260509205134 | 70 | 183 | 1.0 | 2.0 | 0.00 | 0.00 | 0.00 | 65 | 990.8 |
| 20260509204537 | 70 | 194 | 2.0 | 3.0 | 0.00 | 0.00 | 0.00 | 61 | 990.8 |
| 20260509203950 | 71 | 173 | 4.0 | 7.0 | 0.00 | 0.00 | 0.00 | 60 | 990.8 |
| 20260509203321 | 71 | 228 | 2.0 | 3.0 | 0.00 | 0.00 | 0.00 | 62 | 990.8 |
| 20260509202753 | 72 | 230 | 1.0 | 3.0 | 0.00 | 0.00 | 0.00 | 62 | 990.8 |
| 20260509202126 | 72 | 162 | 5.0 | 6.0 | 0.00 | 0.00 | 0.00 | 61 | 990.8 |
| 20260509201532 | 71 | 231 | 1.0 | 4.0 | 0.00 | 0.00 | 0.00 | 66 | 990.8 |
| 20260509200939 | 71 | 225 | 1.0 | 6.0 | 0.00 | 0.00 | 0.00 | 64 | 991.1 |
| 20260509200309 | 70 | 209 | 1.0 | 3.0 | 0.00 | 0.00 | 0.00 | 63 | 991.1 |
| 20260509195125 | 70 | 236 | 1.0 | 1.0 | 0.00 | 0.00 | 0.00 | 69 | 991.1 |
| 20260509193915 | 69 | 213 | 3.0 | 4.0 | 0.00 | 0.00 | 0.00 | 66 | 991.1 |
| 20260509193337 | 70 | 169 | 3.0 | 3.0 | 0.00 | 0.00 | 0.00 | 67 | 991.5 |
| 20260509192748 | 70 | 222 | 4.0 | 8.0 | 0.00 | 0.00 | 0.00 | 65 | 991.5 |